Location: Squirrel Cove
(50.1074°N, 124.9139°W)
Time: 04:35:53
(UTC-07:00)

ITUPSAT 1 - Visible Passes

Search period start: 22 May 2022 00:00
Search period end: 01 June 2022 00:00
Orbit: 700 x 712 km, 98.6° (Epoch: 21 May)

Date Brightness Start Highest point End Pass type
(mag) Time Alt. Az. Time Alt. Az. Time Alt. Az.
22 May ? 22:12:57 10° N 22:17:40 62° WNW 22:22:21 10° SSW visible
22 May ? 23:53:06 10° NNW 23:54:32 11° NW 23:55:57 10° WNW visible
23 May ? 22:57:18 10° N 23:01:18 28° WNW 23:05:18 10° WSW visible
24 May ? 22:02:55 10° NNE 22:07:41 76° WNW 22:12:25 10° SSW visible
24 May ? 23:42:24 10° NNW 23:44:41 13° NW 23:46:57 10° W visible
25 May ? 22:47:08 10° N 22:51:23 33° WNW 22:55:37 10° SW visible
26 May ? 21:52:53 10° NNE 21:57:41 88° ESE 22:02:26 10° SSW visible
26 May ? 23:31:58 10° NNW 23:34:50 16° NW 23:37:39 10° W visible
27 May ? 22:37:00 10° N 22:41:26 40° WNW 22:45:51 10° SW visible
28 May ? 23:21:38 10° NNW 23:24:56 19° WNW 23:28:13 10° W visible
29 May ? 22:26:53 10° N 22:31:28 48° WNW 22:36:01 10° SW visible
30 May ? 23:11:22 10° N 23:15:01 22° WNW 23:18:40 10° WSW visible
31 May ? 22:16:47 10° N 22:21:29 59° WNW 22:26:08 10° SSW visible
31 May ? 23:57:10 10° NW 23:58:19 11° NW 23:59:27 10° WNW visible
